Location: Novo Ouro Preto
(19.8840°S, 43.9844°W)
Time: 09:35:24
(UTC+00:00)

Skynet4D Del rocket - Pass Details

Date: 18 September 2020
Orbit: 763 x 1291 km, 26.9° (Epoch: 21 October)

Event Time Altitude Azimuth Distance (km) Brightness Sun altitude
Rises 22:52:40 0° 253° (WSW) 3,954 8.4 -29.3°
Reaches altitude 10° 22:55:39 10° 255° (WSW) 2,911 7.4 -29.9°
Enters shadow 23:02:21 65° 320° (NW) 1,058 4.1 -31.5°
